Year,Month,Day,Hour,Minute,Value (Times are PST for temperature in C)
2013,07,25,00,00,16.70
2013,07,25,00,01,16.70
2013,07,25,00,02,16.60
2013,07,25,00,03,16.60
2013,07,25,00,04,16.60
2013,07,25,00,05,16.50
2013,07,25,00,06,16.50
2013,07,25,00,07,16.50
2013,07,25,00,08,16.40
2013,07,25,00,09,16.40
2013,07,25,00,10,16.40
2013,07,25,00,11,16.40
2013,07,25,00,12,16.50
2013,07,25,00,13,16.50
2013,07,25,00,14,16.50
2013,07,25,00,15,16.50
2013,07,25,00,16,16.50
2013,07,25,00,17,16.60
2013,07,25,00,18,16.60
2013,07,25,00,19,16.60
2013,07,25,00,20,16.60
2013,07,25,00,21,16.50
2013,07,25,00,22,16.50
2013,07,25,00,23,16.40
2013,07,25,00,24,16.40
2013,07,25,00,25,16.30
2013,07,25,00,26,16.30
2013,07,25,00,27,16.30
2013,07,25,00,28,16.20
2013,07,25,00,29,16.20
2013,07,25,00,30,16.10
2013,07,25,00,31,16.10
2013,07,25,00,32,16.10
2013,07,25,00,33,16.10
2013,07,25,00,34,16.10
2013,07,25,00,35,16.10
2013,07,25,00,36,16.10
2013,07,25,00,37,16.00
2013,07,25,00,38,15.90
2013,07,25,00,39,15.90
2013,07,25,00,40,15.90
2013,07,25,00,41,15.80
2013,07,25,00,42,15.80
2013,07,25,00,43,15.80
2013,07,25,00,44,15.80
2013,07,25,00,45,15.80
2013,07,25,00,46,15.80
2013,07,25,00,47,15.80
2013,07,25,00,48,15.80
2013,07,25,00,49,15.80
2013,07,25,00,50,15.90
2013,07,25,00,51,15.80
2013,07,25,00,52,15.80
2013,07,25,00,53,15.80
2013,07,25,00,54,15.80
2013,07,25,00,55,15.80
2013,07,25,00,56,15.80
2013,07,25,00,57,15.80
2013,07,25,00,58,15.70
2013,07,25,00,59,15.70
2013,07,25,01,00,15.70
2013,07,25,01,01,15.70
2013,07,25,01,02,15.70
2013,07,25,01,03,15.60
2013,07,25,01,04,15.60
2013,07,25,01,05,15.60
2013,07,25,01,06,15.60
2013,07,25,01,07,15.60
2013,07,25,01,08,15.50
2013,07,25,01,09,15.50
2013,07,25,01,10,15.50
2013,07,25,01,11,15.40
2013,07,25,01,12,15.30
2013,07,25,01,13,15.30
2013,07,25,01,14,15.10
2013,07,25,01,15,15.00
2013,07,25,01,16,15.00
2013,07,25,01,17,15.00
2013,07,25,01,18,15.00
2013,07,25,01,19,14.90
2013,07,25,01,20,14.80
2013,07,25,01,21,14.80
2013,07,25,01,22,14.70
2013,07,25,01,23,14.70
2013,07,25,01,24,14.60
2013,07,25,01,25,14.60
2013,07,25,01,26,14.50
2013,07,25,01,27,14.50
2013,07,25,01,28,14.40
2013,07,25,01,29,14.40
2013,07,25,01,30,14.40
2013,07,25,01,31,14.30
2013,07,25,01,32,14.30
2013,07,25,01,33,14.30
2013,07,25,01,34,14.20
2013,07,25,01,35,14.20
2013,07,25,01,36,14.20
2013,07,25,01,37,14.10
2013,07,25,01,38,14.10
2013,07,25,01,39,14.00
2013,07,25,01,40,14.00
2013,07,25,01,41,14.00
2013,07,25,01,42,13.90
2013,07,25,01,43,13.90
2013,07,25,01,44,13.90
2013,07,25,01,45,13.80
2013,07,25,01,46,13.80
2013,07,25,01,47,13.80
2013,07,25,01,48,13.80
2013,07,25,01,49,13.70
2013,07,25,01,50,13.70
2013,07,25,01,51,13.70
2013,07,25,01,52,13.70
2013,07,25,01,53,13.60
2013,07,25,01,54,13.60
2013,07,25,01,55,13.60
2013,07,25,01,56,13.60
2013,07,25,01,57,13.50
2013,07,25,01,58,13.50
2013,07,25,01,59,13.50
2013,07,25,02,00,13.50
2013,07,25,02,01,13.40
2013,07,25,02,02,13.40
2013,07,25,02,03,13.40
2013,07,25,02,04,13.40
2013,07,25,02,05,13.30
2013,07,25,02,06,13.30
2013,07,25,02,07,13.30
2013,07,25,02,08,13.30
2013,07,25,02,09,13.20
2013,07,25,02,10,13.20
2013,07,25,02,11,13.20
2013,07,25,02,12,13.20
2013,07,25,02,13,13.20
2013,07,25,02,14,13.10
2013,07,25,02,15,13.10
2013,07,25,02,16,13.10
2013,07,25,02,17,13.10
2013,07,25,02,18,13.00
2013,07,25,02,19,13.00
2013,07,25,02,20,12.90
2013,07,25,02,21,12.90
2013,07,25,02,22,12.90
2013,07,25,02,23,12.80
2013,07,25,02,24,12.80
2013,07,25,02,25,12.80
2013,07,25,02,26,12.70
2013,07,25,02,27,12.70
2013,07,25,02,28,12.70
2013,07,25,02,29,12.60
2013,07,25,02,30,12.60
2013,07,25,02,31,12.60
2013,07,25,02,32,12.60
2013,07,25,02,33,12.50
2013,07,25,02,34,12.50
2013,07,25,02,35,12.50
2013,07,25,02,36,12.50
2013,07,25,02,37,12.40
2013,07,25,02,38,12.40
2013,07,25,02,39,12.40
2013,07,25,02,40,12.40
2013,07,25,02,41,12.40
2013,07,25,02,42,12.40
2013,07,25,02,43,12.40
2013,07,25,02,44,12.30
2013,07,25,02,45,12.30
2013,07,25,02,46,12.30
2013,07,25,02,47,12.30
2013,07,25,02,48,12.30
2013,07,25,02,49,12.30
2013,07,25,02,50,12.30
2013,07,25,02,51,12.30
2013,07,25,02,52,12.20
2013,07,25,02,53,12.20
2013,07,25,02,54,12.20
2013,07,25,02,55,12.20
2013,07,25,02,56,12.20
2013,07,25,02,57,12.20
2013,07,25,02,58,12.20
2013,07,25,02,59,12.20
2013,07,25,03,00,12.20
2013,07,25,03,01,12.10
2013,07,25,03,02,12.10
2013,07,25,03,03,12.10
2013,07,25,03,04,12.10
2013,07,25,03,05,12.10
2013,07,25,03,06,12.00
2013,07,25,03,07,12.00
2013,07,25,03,08,12.00
2013,07,25,03,09,11.90
2013,07,25,03,10,11.90
2013,07,25,03,11,11.90
2013,07,25,03,12,11.90
2013,07,25,03,13,11.90
2013,07,25,03,14,11.80
2013,07,25,03,15,11.80
2013,07,25,03,16,11.80
2013,07,25,03,17,11.80
2013,07,25,03,18,11.80
2013,07,25,03,19,11.80
2013,07,25,03,20,11.80
2013,07,25,03,21,11.80
2013,07,25,03,22,11.80
2013,07,25,03,23,11.80
2013,07,25,03,24,11.70
2013,07,25,03,25,11.70
2013,07,25,03,26,11.70
2013,07,25,03,27,11.70
2013,07,25,03,28,11.70
2013,07,25,03,29,11.70
2013,07,25,03,30,11.70
2013,07,25,03,31,11.60
2013,07,25,03,32,11.60
2013,07,25,03,33,11.60
2013,07,25,03,34,11.60
2013,07,25,03,35,11.60
2013,07,25,03,36,11.60
2013,07,25,03,37,11.50
2013,07,25,03,38,11.50
2013,07,25,03,39,11.50
2013,07,25,03,40,11.40
2013,07,25,03,41,11.40
2013,07,25,03,42,11.40
2013,07,25,03,43,11.40
2013,07,25,03,44,11.30
2013,07,25,03,45,11.30
2013,07,25,03,46,11.30
2013,07,25,03,47,11.30
2013,07,25,03,48,11.30
2013,07,25,03,49,11.20
2013,07,25,03,50,11.20
2013,07,25,03,51,11.20
2013,07,25,03,52,11.20
2013,07,25,03,53,11.20
2013,07,25,03,54,11.20
2013,07,25,03,55,11.20
2013,07,25,03,56,11.10
2013,07,25,03,57,11.10
2013,07,25,03,58,11.10
2013,07,25,03,59,11.10
2013,07,25,04,00,11.10
2013,07,25,04,01,11.00
2013,07,25,04,02,11.00
2013,07,25,04,03,11.00
2013,07,25,04,04,11.00
2013,07,25,04,05,10.90
2013,07,25,04,06,10.90
2013,07,25,04,07,10.90
2013,07,25,04,08,10.90
2013,07,25,04,09,10.80
2013,07,25,04,10,10.80
2013,07,25,04,11,10.80
2013,07,25,04,12,10.80
2013,07,25,04,13,10.80
2013,07,25,04,14,10.80
2013,07,25,04,15,10.80
2013,07,25,04,16,10.70
2013,07,25,04,17,10.70
2013,07,25,04,18,10.70
2013,07,25,04,19,10.70
2013,07,25,04,20,10.70
2013,07,25,04,21,10.70
2013,07,25,04,22,10.70
2013,07,25,04,23,10.70
2013,07,25,04,24,10.70
2013,07,25,04,25,10.70
2013,07,25,04,26,10.70
2013,07,25,04,27,10.70
2013,07,25,04,28,10.70
2013,07,25,04,29,10.60
2013,07,25,04,30,10.60
2013,07,25,04,31,10.60
2013,07,25,04,32,10.60
2013,07,25,04,33,10.60
2013,07,25,04,34,10.50
2013,07,25,04,35,10.50
2013,07,25,04,36,10.50
2013,07,25,04,37,10.40
2013,07,25,04,38,10.40
2013,07,25,04,39,10.40
2013,07,25,04,40,10.40
2013,07,25,04,41,10.40
2013,07,25,04,42,10.30
2013,07,25,04,43,10.30
2013,07,25,04,44,10.30
2013,07,25,04,45,10.30
2013,07,25,04,46,10.30
2013,07,25,04,47,10.30
2013,07,25,04,48,10.20
2013,07,25,04,49,10.20
2013,07,25,04,50,10.20
2013,07,25,04,51,10.20
2013,07,25,04,52,10.20
2013,07,25,04,53,10.20
2013,07,25,04,54,10.20
2013,07,25,04,55,10.10
2013,07,25,04,56,10.10
2013,07,25,04,57,10.10
2013,07,25,04,58,10.10
2013,07,25,04,59,10.00
2013,07,25,05,00,10.00
2013,07,25,05,01,10.00
2013,07,25,05,02,9.90
2013,07,25,05,03,9.90
2013,07,25,05,04,9.90
2013,07,25,05,05,9.90
2013,07,25,05,06,9.90
2013,07,25,05,07,9.90
2013,07,25,05,08,9.90
2013,07,25,05,09,9.90
2013,07,25,05,10,9.90
2013,07,25,05,11,9.80
2013,07,25,05,12,9.80
2013,07,25,05,13,9.80
2013,07,25,05,14,9.80
2013,07,25,05,15,9.80
2013,07,25,05,16,9.80
2013,07,25,05,17,9.80
2013,07,25,05,18,9.70
2013,07,25,05,19,9.70
2013,07,25,05,20,9.70
2013,07,25,05,21,9.70
2013,07,25,05,22,9.70
2013,07,25,05,23,9.70
2013,07,25,05,24,9.70
2013,07,25,05,25,9.70
2013,07,25,05,26,9.70
2013,07,25,05,27,9.70
2013,07,25,05,28,9.60
2013,07,25,05,29,9.60
2013,07,25,05,30,9.60
2013,07,25,05,31,9.60
2013,07,25,05,32,9.60
2013,07,25,05,33,9.60
2013,07,25,05,34,9.60
2013,07,25,05,35,9.60
2013,07,25,05,36,9.60
2013,07,25,05,37,9.60
2013,07,25,05,38,9.50
2013,07,25,05,39,9.50
2013,07,25,05,40,9.50
2013,07,25,05,41,9.50
2013,07,25,05,42,9.40
2013,07,25,05,43,9.40
2013,07,25,05,44,9.40
2013,07,25,05,45,9.40
2013,07,25,05,46,9.40
2013,07,25,05,47,9.40
2013,07,25,05,48,9.40
2013,07,25,05,49,9.40
2013,07,25,05,50,9.40
2013,07,25,05,51,9.40
2013,07,25,05,52,9.40
2013,07,25,05,53,9.30
2013,07,25,05,54,9.30
2013,07,25,05,55,9.30
2013,07,25,05,56,9.30
2013,07,25,05,57,9.30
2013,07,25,05,58,9.30
2013,07,25,05,59,9.30
2013,07,25,06,00,9.30
2013,07,25,06,01,9.20
2013,07,25,06,02,9.20
2013,07,25,06,03,9.20
2013,07,25,06,04,9.20
2013,07,25,06,05,9.20
2013,07,25,06,06,9.20
2013,07,25,06,07,9.20
2013,07,25,06,08,9.20
2013,07,25,06,09,9.10
2013,07,25,06,10,9.10
2013,07,25,06,11,9.10
2013,07,25,06,12,9.10
2013,07,25,06,13,9.10
2013,07,25,06,14,9.10
2013,07,25,06,15,9.10
2013,07,25,06,16,9.10
2013,07,25,06,17,9.10
2013,07,25,06,18,9.10
2013,07,25,06,19,9.10
2013,07,25,06,20,9.10
2013,07,25,06,21,9.10
2013,07,25,06,22,9.10
2013,07,25,06,23,9.10
2013,07,25,06,24,9.10
2013,07,25,06,25,9.10
2013,07,25,06,26,9.10
2013,07,25,06,27,9.10
2013,07,25,06,28,9.10
2013,07,25,06,29,9.00
2013,07,25,06,30,9.00
2013,07,25,06,31,9.00
2013,07,25,06,32,9.00
2013,07,25,06,33,8.90
2013,07,25,06,34,8.90
2013,07,25,06,35,8.90
2013,07,25,06,36,8.90
2013,07,25,06,37,8.90
2013,07,25,06,38,8.90
2013,07,25,06,39,8.90
2013,07,25,06,40,8.90
2013,07,25,06,41,8.90
2013,07,25,06,42,8.90
2013,07,25,06,43,8.90
2013,07,25,06,44,8.90
2013,07,25,06,45,8.90
2013,07,25,06,46,8.90
2013,07,25,06,47,8.90
2013,07,25,06,48,8.90
2013,07,25,06,49,8.90
2013,07,25,06,50,8.90
2013,07,25,06,51,8.90
2013,07,25,06,52,8.90
2013,07,25,06,53,8.90
2013,07,25,06,54,8.90
2013,07,25,06,55,8.90
2013,07,25,06,56,8.90
2013,07,25,06,57,8.90
2013,07,25,06,58,8.90
2013,07,25,06,59,8.90
2013,07,25,07,00,8.90
2013,07,25,07,01,8.80
2013,07,25,07,02,8.80
2013,07,25,07,03,8.90
2013,07,25,07,04,8.90
2013,07,25,07,05,8.90
2013,07,25,07,06,8.90
2013,07,25,07,07,8.90
2013,07,25,07,08,8.90
2013,07,25,07,09,9.00
2013,07,25,07,10,9.00
2013,07,25,07,11,9.00
2013,07,25,07,12,9.10
2013,07,25,07,13,9.10
2013,07,25,07,14,9.10
2013,07,25,07,15,9.10
2013,07,25,07,16,9.10
2013,07,25,07,17,9.20
2013,07,25,07,18,9.20
2013,07,25,07,19,9.20
2013,07,25,07,20,9.20
2013,07,25,07,21,9.20
2013,07,25,07,22,9.30
2013,07,25,07,23,9.30
2013,07,25,07,24,9.40
2013,07,25,07,25,9.50
2013,07,25,07,26,9.50
2013,07,25,07,27,9.60
2013,07,25,07,28,9.60
2013,07,25,07,29,9.70
2013,07,25,07,30,9.80
2013,07,25,07,31,9.80
2013,07,25,07,32,9.90
2013,07,25,07,33,9.90
2013,07,25,07,34,10.00
2013,07,25,07,35,10.00
2013,07,25,07,36,10.10
2013,07,25,07,37,10.20
2013,07,25,07,38,10.20
2013,07,25,07,39,10.30
2013,07,25,07,40,10.40
2013,07,25,07,41,10.40
2013,07,25,07,42,10.50
2013,07,25,07,43,10.60
2013,07,25,07,44,10.60
2013,07,25,07,45,10.70
2013,07,25,07,46,10.80
2013,07,25,07,47,10.80
2013,07,25,07,48,10.90
2013,07,25,07,49,11.00
2013,07,25,07,50,11.10
2013,07,25,07,51,11.20
2013,07,25,07,52,11.30
2013,07,25,07,53,11.40
2013,07,25,07,54,11.50
2013,07,25,07,55,11.60
2013,07,25,07,56,11.60
2013,07,25,07,57,11.70
2013,07,25,07,58,11.80
2013,07,25,07,59,11.90
2013,07,25,08,00,12.00
2013,07,25,08,01,12.10
2013,07,25,08,02,12.20
2013,07,25,08,03,12.40
2013,07,25,08,04,12.60
2013,07,25,08,05,12.70
2013,07,25,08,06,12.90
2013,07,25,08,07,13.10
2013,07,25,08,08,13.30
2013,07,25,08,09,13.40
2013,07,25,08,10,13.60
2013,07,25,08,11,13.80
2013,07,25,08,12,13.90
2013,07,25,08,13,14.00
2013,07,25,08,14,14.10
2013,07,25,08,15,14.20
2013,07,25,08,16,14.30
2013,07,25,08,17,14.40
2013,07,25,08,18,14.40
2013,07,25,08,19,14.50
2013,07,25,08,20,14.50
2013,07,25,08,21,14.60
2013,07,25,08,22,14.70
2013,07,25,08,23,14.70
2013,07,25,08,24,14.80
2013,07,25,08,25,14.80
2013,07,25,08,26,14.90
2013,07,25,08,27,15.00
2013,07,25,08,28,15.00
2013,07,25,08,29,15.00
2013,07,25,08,30,15.00
2013,07,25,08,31,15.00
2013,07,25,08,32,15.00
2013,07,25,08,33,15.00
2013,07,25,08,34,15.00
2013,07,25,08,35,15.10
2013,07,25,08,36,15.10
2013,07,25,08,37,15.10
2013,07,25,08,38,15.20
2013,07,25,08,39,15.20
2013,07,25,08,40,15.20
2013,07,25,08,41,15.20
2013,07,25,08,42,15.30
2013,07,25,08,43,15.30
2013,07,25,08,44,15.30
2013,07,25,08,45,15.40
2013,07,25,08,46,15.50
2013,07,25,08,47,15.50
2013,07,25,08,48,15.60
2013,07,25,08,49,15.80
2013,07,25,08,50,15.90
2013,07,25,08,51,16.00
2013,07,25,08,52,16.10
2013,07,25,08,53,16.20
2013,07,25,08,54,16.30
2013,07,25,08,55,16.40
2013,07,25,08,56,16.50
2013,07,25,08,57,16.60
2013,07,25,08,58,16.70
2013,07,25,08,59,16.70
2013,07,25,09,00,16.70
2013,07,25,09,01,16.70
2013,07,25,09,02,16.70
2013,07,25,09,03,16.80
2013,07,25,09,04,16.80
2013,07,25,09,05,16.80
2013,07,25,09,06,16.90
2013,07,25,09,07,17.00
2013,07,25,09,08,17.00
2013,07,25,09,09,17.10
2013,07,25,09,10,17.10
2013,07,25,09,11,17.20
2013,07,25,09,12,17.30
2013,07,25,09,13,17.30
2013,07,25,09,14,17.40
2013,07,25,09,15,17.50
2013,07,25,09,16,17.60
2013,07,25,09,17,17.70
2013,07,25,09,18,17.80
2013,07,25,09,19,17.80
2013,07,25,09,20,17.90
2013,07,25,09,21,18.00
2013,07,25,09,22,18.10
2013,07,25,09,23,18.20
2013,07,25,09,24,18.30
2013,07,25,09,25,18.30
2013,07,25,09,26,18.40
2013,07,25,09,27,18.40
2013,07,25,09,28,18.40
2013,07,25,09,29,18.50
2013,07,25,09,30,18.50
2013,07,25,09,31,18.60
2013,07,25,09,32,18.70
2013,07,25,09,33,18.70
2013,07,25,09,34,18.80
2013,07,25,09,35,18.90
2013,07,25,09,36,19.00
2013,07,25,09,37,19.10
2013,07,25,09,38,19.10
2013,07,25,09,39,19.20
2013,07,25,09,40,19.30
2013,07,25,09,41,19.40
2013,07,25,09,42,19.50
2013,07,25,09,43,19.50
2013,07,25,09,44,19.40
2013,07,25,09,45,19.50
2013,07,25,09,46,19.40
2013,07,25,09,47,19.40
2013,07,25,09,48,19.40
2013,07,25,09,49,19.40
2013,07,25,09,50,19.40
2013,07,25,09,51,19.40
2013,07,25,09,52,19.50
2013,07,25,09,53,19.50
2013,07,25,09,54,19.60
2013,07,25,09,55,19.70
2013,07,25,09,56,19.70
2013,07,25,09,57,19.80
2013,07,25,09,58,19.80
2013,07,25,09,59,19.90
2013,07,25,10,00,20.00
2013,07,25,10,01,20.00
2013,07,25,10,02,20.10
2013,07,25,10,03,20.20
2013,07,25,10,04,20.30
2013,07,25,10,05,20.30
2013,07,25,10,06,20.40
2013,07,25,10,07,20.60
2013,07,25,10,08,20.70
2013,07,25,10,09,20.80
2013,07,25,10,10,20.90
2013,07,25,10,11,21.00
2013,07,25,10,12,21.10
2013,07,25,10,13,21.20
2013,07,25,10,14,21.20
2013,07,25,10,15,21.30
2013,07,25,10,16,21.30
2013,07,25,10,17,21.30
2013,07,25,10,18,21.30
2013,07,25,10,19,21.30
2013,07,25,10,20,21.30
2013,07,25,10,21,21.30
2013,07,25,10,22,21.30
2013,07,25,10,23,21.30
2013,07,25,10,24,21.40
2013,07,25,10,25,21.40
2013,07,25,10,26,21.40
2013,07,25,10,27,21.50
2013,07,25,10,28,21.60
2013,07,25,10,29,21.80
2013,07,25,10,30,21.90
2013,07,25,10,31,21.90
2013,07,25,10,32,22.00
2013,07,25,10,33,22.10
2013,07,25,10,34,22.10
2013,07,25,10,35,22.20
2013,07,25,10,36,22.20
2013,07,25,10,37,22.20
2013,07,25,10,38,22.30
2013,07,25,10,39,22.30
2013,07,25,10,40,22.40
2013,07,25,10,41,22.50
2013,07,25,10,42,22.50
2013,07,25,10,43,22.60
2013,07,25,10,44,22.70
2013,07,25,10,45,22.70
2013,07,25,10,46,22.80
2013,07,25,10,47,22.80
2013,07,25,10,48,22.90
2013,07,25,10,49,23.00
2013,07,25,10,50,23.00
2013,07,25,10,51,23.10
2013,07,25,10,52,23.10
2013,07,25,10,53,23.10
2013,07,25,10,54,23.20
2013,07,25,10,55,23.30
2013,07,25,10,56,23.30
2013,07,25,10,57,23.30
2013,07,25,10,58,23.20
2013,07,25,10,59,23.20
2013,07,25,11,00,23.20
2013,07,25,11,01,23.20
2013,07,25,11,02,23.20
2013,07,25,11,03,23.30
2013,07,25,11,04,23.40
2013,07,25,11,05,23.40
2013,07,25,11,06,23.40
2013,07,25,11,07,23.40
2013,07,25,11,08,23.30
2013,07,25,11,09,23.20
2013,07,25,11,10,23.20
2013,07,25,11,11,23.20
2013,07,25,11,12,23.30
2013,07,25,11,13,23.30
2013,07,25,11,14,23.40
2013,07,25,11,15,23.50
2013,07,25,11,16,23.50
2013,07,25,11,17,23.70
2013,07,25,11,18,23.70
2013,07,25,11,19,23.80
2013,07,25,11,20,23.90
2013,07,25,11,21,24.00
2013,07,25,11,22,24.10
2013,07,25,11,23,24.20
2013,07,25,11,24,24.20
2013,07,25,11,25,24.30
2013,07,25,11,26,24.50
2013,07,25,11,27,24.60
2013,07,25,11,28,24.60
2013,07,25,11,29,24.70
2013,07,25,11,30,24.70
2013,07,25,11,31,24.80
2013,07,25,11,32,24.90
2013,07,25,11,33,24.90
2013,07,25,11,34,24.90
2013,07,25,11,35,24.90
2013,07,25,11,36,24.90
2013,07,25,11,37,24.90
2013,07,25,11,38,25.00
2013,07,25,11,39,25.10
2013,07,25,11,40,25.20
2013,07,25,11,41,25.20
2013,07,25,11,42,25.10
2013,07,25,11,43,25.10
2013,07,25,11,44,25.00
2013,07,25,11,45,24.80
2013,07,25,11,46,24.80
2013,07,25,11,47,24.70
2013,07,25,11,48,24.70
2013,07,25,11,49,24.70
2013,07,25,11,50,24.80
2013,07,25,11,51,24.80
2013,07,25,11,52,24.80
2013,07,25,11,53,24.70
2013,07,25,11,54,24.70
2013,07,25,11,55,24.60
2013,07,25,11,56,24.60
2013,07,25,11,57,24.60
2013,07,25,11,58,24.60
2013,07,25,11,59,24.70
2013,07,25,12,00,24.70
2013,07,25,12,01,24.80
2013,07,25,12,02,24.90
2013,07,25,12,03,25.00
2013,07,25,12,04,25.00
2013,07,25,12,05,25.00
2013,07,25,12,06,25.10
2013,07,25,12,07,25.20
2013,07,25,12,08,25.40
2013,07,25,12,09,25.50
2013,07,25,12,10,25.60
2013,07,25,12,11,25.70
2013,07,25,12,12,25.60
2013,07,25,12,13,25.50
2013,07,25,12,14,25.50
2013,07,25,12,15,25.40
2013,07,25,12,16,25.40
2013,07,25,12,17,25.40
2013,07,25,12,18,25.40
2013,07,25,12,19,25.40
2013,07,25,12,20,25.40
2013,07,25,12,21,25.30
2013,07,25,12,22,25.30
2013,07,25,12,23,25.30
2013,07,25,12,24,25.30
2013,07,25,12,25,25.30
2013,07,25,12,26,25.30
2013,07,25,12,27,25.30
2013,07,25,12,28,25.40
2013,07,25,12,29,25.40
2013,07,25,12,30,25.50
2013,07,25,12,31,25.60
2013,07,25,12,32,25.70
2013,07,25,12,33,25.90
2013,07,25,12,34,25.90
2013,07,25,12,35,25.90
2013,07,25,12,36,26.00
2013,07,25,12,37,26.00
2013,07,25,12,38,26.00
2013,07,25,12,39,26.10
2013,07,25,12,40,26.20
2013,07,25,12,41,26.30
2013,07,25,12,42,26.30
2013,07,25,12,43,26.40
2013,07,25,12,44,26.40
2013,07,25,12,45,26.40
2013,07,25,12,46,26.40
2013,07,25,12,47,26.40
2013,07,25,12,48,26.40
2013,07,25,12,49,26.50
2013,07,25,12,50,26.60
2013,07,25,12,51,26.70
2013,07,25,12,52,26.80
2013,07,25,12,53,27.00
2013,07,25,12,54,27.10
2013,07,25,12,55,27.10
2013,07,25,12,56,27.20
2013,07,25,12,57,27.20
2013,07,25,12,58,27.20
2013,07,25,12,59,27.20
2013,07,25,13,00,27.20
2013,07,25,13,01,27.20
2013,07,25,13,02,27.20
2013,07,25,13,03,27.00
2013,07,25,13,04,26.90
2013,07,25,13,05,26.80
2013,07,25,13,06,26.80
2013,07,25,13,07,26.80
2013,07,25,13,08,26.80
2013,07,25,13,09,26.90
2013,07,25,13,10,26.90
2013,07,25,13,11,26.90
2013,07,25,13,12,26.90
2013,07,25,13,13,26.80
2013,07,25,13,14,26.80
2013,07,25,13,15,26.80
2013,07,25,13,16,26.80
2013,07,25,13,17,26.80
2013,07,25,13,18,26.90
2013,07,25,13,19,26.90
2013,07,25,13,20,26.90
2013,07,25,13,21,27.00
2013,07,25,13,22,27.10
2013,07,25,13,23,27.20
2013,07,25,13,24,27.30
2013,07,25,13,25,27.30
2013,07,25,13,26,27.50
2013,07,25,13,27,27.60
2013,07,25,13,28,27.70
2013,07,25,13,29,27.70
2013,07,25,13,30,27.80
2013,07,25,13,31,27.80
2013,07,25,13,32,27.80
2013,07,25,13,33,27.90
2013,07,25,13,34,27.90
2013,07,25,13,35,28.00
2013,07,25,13,36,28.00
2013,07,25,13,37,28.10
2013,07,25,13,38,28.10
2013,07,25,13,39,28.10
2013,07,25,13,40,28.20
2013,07,25,13,41,28.30
2013,07,25,13,42,28.40
2013,07,25,13,43,28.50
2013,07,25,13,44,28.60
2013,07,25,13,45,28.70
2013,07,25,13,46,28.70
2013,07,25,13,47,28.70
2013,07,25,13,48,28.60
2013,07,25,13,49,28.60
2013,07,25,13,50,28.60
2013,07,25,13,51,28.60
2013,07,25,13,52,28.70
2013,07,25,13,53,28.70
2013,07,25,13,54,28.70
2013,07,25,13,55,28.60
2013,07,25,13,56,28.50
2013,07,25,13,57,28.50
2013,07,25,13,58,28.50
2013,07,25,13,59,28.60
2013,07,25,14,00,28.50
2013,07,25,14,01,28.50
2013,07,25,14,02,28.40
2013,07,25,14,03,28.40
2013,07,25,14,04,28.30
2013,07,25,14,05,28.40
2013,07,25,14,06,28.40
2013,07,25,14,07,28.40
2013,07,25,14,08,28.50
2013,07,25,14,09,28.50
2013,07,25,14,10,28.60
2013,07,25,14,11,28.70
2013,07,25,14,12,28.70
2013,07,25,14,13,28.80
2013,07,25,14,14,28.90
2013,07,25,14,15,28.90
2013,07,25,14,16,29.00
2013,07,25,14,17,29.10
2013,07,25,14,18,29.20
2013,07,25,14,19,29.40
2013,07,25,14,20,29.50
2013,07,25,14,21,29.50
2013,07,25,14,22,29.50
2013,07,25,14,23,29.40
2013,07,25,14,24,29.40
2013,07,25,14,25,29.40
2013,07,25,14,26,29.20
2013,07,25,14,27,29.10
2013,07,25,14,28,29.10
2013,07,25,14,29,29.10
2013,07,25,14,30,29.20
2013,07,25,14,31,29.30
2013,07,25,14,32,29.50
2013,07,25,14,33,29.60
2013,07,25,14,34,29.70
2013,07,25,14,35,29.80
2013,07,25,14,36,29.90
2013,07,25,14,37,30.00
2013,07,25,14,38,30.10
2013,07,25,14,39,30.20
2013,07,25,14,40,30.20
2013,07,25,14,41,30.30
2013,07,25,14,42,30.40
2013,07,25,14,43,30.30
2013,07,25,14,44,30.40
2013,07,25,14,45,30.40
2013,07,25,14,46,30.30
2013,07,25,14,47,30.20
2013,07,25,14,48,30.20
2013,07,25,14,49,30.20
2013,07,25,14,50,30.20
2013,07,25,14,51,30.20
2013,07,25,14,52,30.30
2013,07,25,14,53,30.30
2013,07,25,14,54,30.50
2013,07,25,14,55,30.60
2013,07,25,14,56,30.60
2013,07,25,14,57,30.70
2013,07,25,14,58,30.70
2013,07,25,14,59,30.80
2013,07,25,15,00,30.70
2013,07,25,15,01,30.70
2013,07,25,15,02,30.60
2013,07,25,15,03,30.60
2013,07,25,15,04,30.60
2013,07,25,15,05,30.60
2013,07,25,15,06,30.60
2013,07,25,15,07,30.60
2013,07,25,15,08,30.60
2013,07,25,15,09,30.60
2013,07,25,15,10,30.70
2013,07,25,15,11,30.80
2013,07,25,15,12,30.80
2013,07,25,15,13,30.90
2013,07,25,15,14,30.90
2013,07,25,15,15,30.80
2013,07,25,15,16,30.70
2013,07,25,15,17,30.60
2013,07,25,15,18,30.60
2013,07,25,15,19,30.50
2013,07,25,15,20,30.50
2013,07,25,15,21,30.50
2013,07,25,15,22,30.60
2013,07,25,15,23,30.60
2013,07,25,15,24,30.60
2013,07,25,15,25,30.40
2013,07,25,15,26,30.40
2013,07,25,15,27,30.40
2013,07,25,15,28,30.40
2013,07,25,15,29,30.40
2013,07,25,15,30,30.40
2013,07,25,15,31,30.40
2013,07,25,15,32,30.40
2013,07,25,15,33,30.40
2013,07,25,15,34,30.40
2013,07,25,15,35,30.40
2013,07,25,15,36,30.40
2013,07,25,15,37,30.40
2013,07,25,15,38,30.40
2013,07,25,15,39,30.40
2013,07,25,15,40,30.50
2013,07,25,15,41,30.50
2013,07,25,15,42,30.60
2013,07,25,15,43,30.60
2013,07,25,15,44,30.50
2013,07,25,15,45,30.50
2013,07,25,15,46,30.50
2013,07,25,15,47,30.50
2013,07,25,15,48,30.50
2013,07,25,15,49,30.60
2013,07,25,15,50,30.60
2013,07,25,15,51,30.60
2013,07,25,15,52,30.60
2013,07,25,15,53,30.60
2013,07,25,15,54,30.60
2013,07,25,15,55,30.60
2013,07,25,15,56,30.60
2013,07,25,15,57,30.60
2013,07,25,15,58,30.60
2013,07,25,15,59,30.70
2013,07,25,16,00,30.80
2013,07,25,16,01,30.80
2013,07,25,16,02,30.80
2013,07,25,16,03,30.80
2013,07,25,16,04,30.70
2013,07,25,16,05,30.70
2013,07,25,16,06,30.60
2013,07,25,16,07,30.60
2013,07,25,16,08,30.50
2013,07,25,16,09,30.50
2013,07,25,16,10,30.50
2013,07,25,16,11,30.60
2013,07,25,16,12,30.60
2013,07,25,16,13,30.60
2013,07,25,16,14,30.70
2013,07,25,16,15,30.80
2013,07,25,16,16,30.80
2013,07,25,16,17,30.90
2013,07,25,16,18,30.90
2013,07,25,16,19,30.90
2013,07,25,16,20,30.90
2013,07,25,16,21,30.80
2013,07,25,16,22,30.80
2013,07,25,16,23,30.70
2013,07,25,16,24,30.70
2013,07,25,16,25,30.70
2013,07,25,16,26,30.80
2013,07,25,16,27,30.90
2013,07,25,16,28,30.90
2013,07,25,16,29,30.90
2013,07,25,16,30,31.00
2013,07,25,16,31,31.10
2013,07,25,16,32,31.10
2013,07,25,16,33,31.10
2013,07,25,16,34,31.00
2013,07,25,16,35,31.10
2013,07,25,16,36,31.00
2013,07,25,16,37,31.00
2013,07,25,16,38,31.00
2013,07,25,16,39,30.90
2013,07,25,16,40,30.90
2013,07,25,16,41,30.80
2013,07,25,16,42,30.80
2013,07,25,16,43,30.70
2013,07,25,16,44,30.70
2013,07,25,16,45,30.70
2013,07,25,16,46,30.70
2013,07,25,16,47,30.80
2013,07,25,16,48,30.80
2013,07,25,16,49,30.80
2013,07,25,16,50,30.80
2013,07,25,16,51,30.80
2013,07,25,16,52,30.80
2013,07,25,16,53,30.80
2013,07,25,16,54,30.70
2013,07,25,16,55,30.70
2013,07,25,16,56,30.60
2013,07,25,16,57,30.60
2013,07,25,16,58,30.50
2013,07,25,16,59,30.40
2013,07,25,17,00,30.30
2013,07,25,17,01,30.20
2013,07,25,17,02,30.20
2013,07,25,17,03,30.10
2013,07,25,17,04,30.10
2013,07,25,17,05,30.20
2013,07,25,17,06,30.30
2013,07,25,17,07,30.40
2013,07,25,17,08,30.50
2013,07,25,17,09,30.60
2013,07,25,17,10,30.60
2013,07,25,17,11,30.70
2013,07,25,17,12,30.70
2013,07,25,17,13,30.80
2013,07,25,17,14,30.70
2013,07,25,17,15,30.70
2013,07,25,17,16,30.80
2013,07,25,17,17,30.80
2013,07,25,17,18,30.80
2013,07,25,17,19,30.80
2013,07,25,17,20,30.80
2013,07,25,17,21,30.70
2013,07,25,17,22,30.70
2013,07,25,17,23,30.80
2013,07,25,17,24,30.80
2013,07,25,17,25,30.80
2013,07,25,17,26,30.90